Date String (YYYY-MM-DD hh:mm:ss) UTC,Instrument flags,absolute air pressure of the measurement (hPa),sample flow rate (lpm),inlet stack bypass flow (lpm),air temperature of the measurement (°C),ambient temperature measured by the external sensor (°C),aerosol sample conditioner tube jacket temperature (°C),OPC LED temperature (°C),internal box temperature (°C),relative humidity of the measurement (%),span deviation,mass concentration of particles derived from Lorenz-Mie calculation of OPC scattering (μg/m³),mass concentration of particles derived from Lorenz-Mie calculation of OPC scattering (μg/m³),mass concentration of particles derived from Lorenz-Mie calculation of OPC scattering (μg/m³)
DateTimeUTC,F1_M11,P_M11,Q1_M11,Q2_M11,T1_M11,T2_M11,T3_M11,T4_M11,T5_M11,U1_M11,ZSPAN_M11,X0_M11,X2_M11,X1_M11
2024-01-10 03:00:00,SystemResetWarning,0813.6,5.00,000.00,019.2,018.2,000.0,027.5,020.3,10.5,0000.0,0003.60,0000.47,0000.25
2024-01-10 03:01:00,SystemResetWarning,0813.6,5.00,000.00,019.2,018.2,000.0,027.5,020.3,10.5,0000.0,0003.95,0000.44,0000.25
2024-01-10 03:02:00,SystemResetWarning,0813.5,5.00,000.00,019.2,018.2,000.0,027.5,020.3,10.4,0000.0,0003.45,0000.43,0000.25
2024-01-10 03:03:00,SystemResetWarning,0813.5,5.00,000.00,019.1,018.2,000.0,027.5,020.3,10.4,0000.0,0003.38,0000.43,0000.24
2024-01-10 03:04:00,SystemResetWarning,0813.5,5.00,000.00,019.1,018.1,000.0,027.5,020.3,10.5,0000.0,0003.50,0000.45,0000.24
2024-01-10 03:05:00,SystemResetWarning,0813.3,5.00,000.00,019.1,018.1,000.0,027.5,020.3,10.5,0000.0,0003.30,0000.42,0000.24
2024-01-10 03:06:00,SystemResetWarning,0813.3,5.00,000.00,019.1,018.1,000.0,027.5,020.3,10.5,0000.0,0003.30,0000.43,0000.25
2024-01-10 03:07:00,SystemResetWarning,0813.3,5.00,000.00,019.1,018.1,000.0,027.5,020.2,10.5,0000.0,0003.32,0000.43,0000.26
2024-01-10 03:08:00,SystemResetWarning,0813.3,5.00,000.00,019.1,018.1,000.0,027.5,020.1,10.5,0000.0,0003.39,0000.43,0000.26
2024-01-10 03:09:00,SystemResetWarning,0813.3,5.00,000.00,019.1,018.1,000.0,027.5,020.1,10.5,0000.0,0003.15,0000.42,0000.26
2024-01-10 03:10:00,SystemResetWarning,0813.2,5.00,000.00,019.0,018.1,000.0,027.5,020.0,10.5,0000.0,0002.62,0000.40,0000.26
2024-01-10 03:11:00,SystemResetWarning,0813.2,5.00,000.00,019.0,018.1,000.0,027.4,020.0,10.5,0000.0,0001.26,0000.40,0000.27
2024-01-10 03:12:00,SystemResetWarning,0813.1,5.00,000.00,019.0,018.1,000.0,027.4,020.1,10.5,0000.0,0000.88,0000.41,0000.28
2024-01-10 03:13:00,SystemResetWarning,0813.0,5.00,000.00,019.0,018.1,000.0,027.4,020.0,10.4,0000.0,0000.86,0000.43,0000.30
2024-01-10 03:14:00,SystemResetWarning,0813.0,4.99,000.00,019.0,018.1,000.0,027.4,020.0,10.5,0000.0,0001.38,0000.46,0000.30
2024-01-10 03:15:00,SystemResetWarning,0813.0,5.00,000.00,019.0,018.0,000.0,027.4,020.0,10.6,0000.0,0001.62,0000.48,0000.30
2024-01-10 03:16:00,SystemResetWarning,0813.0,5.00,000.00,019.0,018.0,000.0,027.4,020.0,10.6,0000.0,0001.70,0000.50,0000.31
2024-01-10 03:17:00,SystemResetWarning,0812.7,5.00,000.00,018.9,017.9,000.0,027.4,020.0,10.5,0000.0,0001.71,0000.50,0000.32
2024-01-10 03:18:00,SystemResetWarning,0812.8,5.00,000.00,018.9,017.9,000.0,027.4,020.1,10.5,0000.0,0001.88,0000.52,0000.32
2024-01-10 03:19:00,SystemResetWarning,0813.0,5.01,000.00,018.9,017.9,000.0,027.3,020.1,10.5,0000.0,0001.92,0000.56,0000.32
2024-01-10 03:20:00,SystemResetWarning,0812.9,5.00,000.00,018.9,017.9,000.0,027.3,020.0,10.5,0000.0,0002.03,0000.62,0000.34
2024-01-10 03:21:00,SystemResetWarning,0812.9,5.01,000.00,018.9,017.9,000.0,027.3,020.0,10.5,0000.0,0002.08,0000.64,0000.34
2024-01-10 03:22:00,SystemResetWarning,0813.0,5.00,000.00,018.9,017.9,000.0,027.3,020.0,10.6,0000.0,0002.11,0000.64,0000.34
2024-01-10 03:23:00,SystemResetWarning,0813.1,5.00,000.00,018.9,017.9,000.0,027.3,020.0,10.5,0000.0,0002.85,0000.65,0000.33
2024-01-10 03:24:00,SystemResetWarning,0813.2,4.99,000.00,018.9,017.9,000.0,027.3,020.0,10.4,0000.0,0002.86,0000.64,0000.33
2024-01-10 03:25:00,SystemResetWarning,0813.3,4.99,000.00,018.9,017.9,000.0,027.3,020.0,10.5,0000.0,0002.46,0000.62,0000.33
2024-01-10 03:26:00,SystemResetWarning,0813.2,5.00,000.00,018.9,017.9,000.0,027.3,020.0,10.5,0000.0,0002.03,0000.57,0000.33
2024-01-10 03:27:00,SystemResetWarning,0813.3,5.00,000.00,018.9,017.8,000.0,027.3,020.0,10.5,0000.0,0002.25,0000.57,0000.32
2024-01-10 03:28:00,SystemResetWarning,0813.3,5.01,000.00,018.9,017.9,000.0,027.3,020.0,10.6,0000.0,0002.29,0000.58,0000.32
2024-01-10 03:29:00,SystemResetWarning,0813.3,5.00,000.00,018.9,017.8,000.0,027.3,020.0,10.5,0000.0,0002.33,0000.60,0000.32
2024-01-10 03:30:00,SystemResetWarning,0813.3,5.01,000.00,018.9,017.8,000.0,027.3,020.0,10.5,0000.0,0002.19,0000.59,0000.32
2024-01-10 03:31:00,SystemResetWarning,0813.2,5.00,000.00,018.8,017.8,000.0,027.3,020.0,10.5,0000.0,0002.10,0000.54,0000.32
2024-01-10 03:32:00,SystemResetWarning,0813.1,4.99,000.00,018.8,017.8,000.0,027.3,020.0,10.6,0000.0,0001.99,0000.50,0000.32
2024-01-10 03:33:00,SystemResetWarning,0813.2,4.99,000.00,018.8,017.8,000.0,027.3,020.0,10.7,0000.0,0002.92,0000.53,0000.32
2024-01-10 03:34:00,SystemResetWarning,0813.2,5.00,000.00,018.8,017.8,000.0,027.3,020.0,10.7,0000.0,0004.04,0000.58,0000.32
2024-01-10 03:35:00,SystemResetWarning,0813.0,5.00,000.00,018.8,017.7,000.0,027.3,020.0,10.8,0000.0,0005.30,0000.61,0000.32
2024-01-10 03:36:00,SystemResetWarning,0813.0,5.01,000.00,018.8,017.7,000.0,027.3,020.0,10.9,0000.0,0006.61,0000.68,0000.32
2024-01-10 03:37:00,SystemResetWarning,0813.0,5.00,000.00,018.8,017.7,000.0,027.3,020.0,10.9,0000.0,0008.00,0000.72,0000.32
2024-01-10 03:38:00,SystemResetWarning,0812.9,5.01,000.00,018.8,017.6,000.0,027.3,020.0,11.0,0000.0,0008.08,0000.75,0000.32
2024-01-10 03:39:00,SystemResetWarning,0812.9,5.00,000.00,018.8,017.6,000.0,027.3,020.0,11.1,0000.0,0008.06,0000.76,0000.32
2024-01-10 03:40:00,SystemResetWarning,0812.9,4.99,000.00,018.8,017.6,000.0,027.3,020.0,11.1,0000.0,0008.07,0000.74,0000.32
2024-01-10 03:41:00,SystemResetWarning,0813.0,5.00,000.00,018.8,017.6,000.0,027.3,020.0,11.1,0000.0,0008.10,0000.77,0000.33
2024-01-10 03:42:00,SystemResetWarning,0812.9,4.99,000.00,018.8,017.5,000.0,027.3,020.0,11.2,0000.0,0008.11,0000.78,0000.33
2024-01-10 03:43:00,SystemResetWarning,0812.8,5.00,000.00,018.8,017.5,000.0,027.3,020.0,11.1,0000.0,0008.14,0000.80,0000.32
2024-01-10 03:44:00,SystemResetWarning,0812.9,5.00,000.00,018.8,017.5,000.0,027.3,020.0,11.1,0000.0,0008.00,0000.80,0000.33
2024-01-10 03:45:00,SystemResetWarning,0812.9,5.00,000.00,018.8,017.5,000.0,027.3,020.0,11.1,0000.0,0007.47,0000.75,0000.33
2024-01-10 03:46:00,SystemResetWarning,0812.8,5.00,000.00,018.8,017.5,000.0,027.3,020.0,11.2,0000.0,0006.35,0000.72,0000.33
2024-01-10 03:47:00,SystemResetWarning,0812.8,5.00,000.00,018.8,017.4,000.0,027.3,020.0,11.2,0000.0,0004.95,0000.63,0000.32
2024-01-10 03:48:00,SystemResetWarning,0812.7,5.00,000.00,018.8,017.4,000.0,027.3,020.0,11.2,0000.0,0003.00,0000.59,0000.32
2024-01-10 03:49:00,SystemResetWarning,0812.6,5.01,000.00,018.8,017.4,000.0,027.2,020.0,11.2,0000.0,0002.46,0000.57,0000.32
2024-01-10 03:50:00,SystemResetWarning,0812.6,5.00,000.00,018.8,017.4,000.0,027.2,020.0,11.2,0000.0,0002.34,0000.54,0000.31
2024-01-10 03:51:00,SystemResetWarning,0812.7,5.00,000.00,018.8,017.5,000.0,027.2,020.0,11.2,0000.0,0002.32,0000.57,0000.31
2024-01-10 03:52:00,SystemResetWarning,0812.7,5.01,000.00,018.8,017.4,000.0,027.2,020.0,11.1,0000.0,0002.24,0000.53,0000.30
2024-01-10 03:53:00,SystemResetWarning,0812.8,5.00,000.00,018.8,017.4,000.0,027.2,020.0,11.2,0000.0,0002.23,0000.53,0000.30
2024-01-10 03:54:00,SystemResetWarning,0812.8,4.99,000.00,018.8,017.4,000.0,027.2,020.0,11.2,0000.0,0002.17,0000.51,0000.30
2024-01-10 03:55:00,SystemResetWarning,0812.8,5.00,000.00,018.8,017.4,000.0,027.2,020.0,11.2,0000.0,0001.94,0000.53,0000.30
2024-01-10 03:56:00,SystemResetWarning,0812.8,4.99,000.00,018.8,017.3,000.0,027.2,020.0,11.2,0000.0,0001.39,0000.52,0000.30
2024-01-10 03:57:00,SystemResetWarning,0812.5,5.00,000.00,018.8,017.3,000.0,027.2,020.0,11.2,0000.0,0001.09,0000.51,0000.29
2024-01-10 03:58:00,SystemResetWarning,0812.7,5.01,000.00,018.8,017.3,000.0,027.2,020.0,11.2,0000.0,0001.09,0000.51,0000.29
2024-01-10 03:59:00,SystemResetWarning,0812.6,5.01,000.00,018.7,017.3,000.0,027.2,020.0,11.3,0000.0,0001.07,0000.51,0000.29
